EW5804 Weather Reports


Display with metric or nautical units.
time (UTC)temp
F
wind
direction
speed
MPH
gust
MPH
rain 1hr
in
rain 24hr
in
rain mn
in
humidity
%
barometer
mb
20260906025007 74 334 0.0 0.0 0.00 0.23 0.23 90 1011.9
20260906024506 74 350 0.0 0.0 0.00 0.23 0.23 90 1012.0
20260906024231 74 334 0.0 0.0 0.00 0.23 0.23 90 1012.1
20260906023505 74 334 0.0 0.0 0.00 0.23 0.23 90 1012.0
20260906022957 74 334 0.0 0.0 0.00 0.23 0.23 90 1012.2
20260906022452 75 334 0.0 0.0 0.00 0.23 0.23 90 1012.2
20260906021947 74 350 0.0 0.0 0.00 0.23 0.23 90 1012.1
20260906021440 74 334 0.0 0.0 0.00 0.23 0.23 90 1012.0
20260906020934 75 334 0.0 0.0 0.00 0.23 0.23 90 1012.0
20260906020427 75 334 0.0 0.0 0.00 0.23 0.23 90 1011.9
20260906015924 75 334 0.0 0.0 0.00 0.23 0.23 90 1011.9
20260906015415 75 334 0.0 0.0 0.00 0.23 0.23 90 1011.9
20260906014925 75 334 0.0 0.0 0.00 0.23 0.23 90 1011.9
20260906014404 75 334 0.0 0.0 0.00 0.23 0.23 90 1011.7
20260906013859 75 334 0.0 0.0 0.00 0.23 0.23 90 1011.8
20260906013352 75 350 0.0 0.0 0.00 0.23 0.23 90 1011.9
20260906013111 75 334 0.0 0.0 0.00 0.23 0.23 90 1011.9
20260906012341 75 334 0.0 0.0 0.00 0.23 0.23 90 1011.7
20260906011833 75 350 0.0 0.0 0.00 0.23 0.23 90 1011.7
20260906011328 75 334 0.0 0.0 0.00 0.23 0.23 90 1011.7
20260906010821 75 334 0.0 0.0 0.00 0.23 0.23 90 1011.5
20260906010315 75 334 0.0 0.0 0.00 0.23 0.23 90 1011.5
20260906005810 75 334 0.0 0.0 0.00 0.23 0.23 90 1011.4
20260906005306 75 334 0.0 0.0 0.00 0.23 0.23 89 1011.3
20260906004757 75 334 0.0 0.0 0.00 0.23 0.23 89 1011.2
20260906004252 75 334 0.0 0.0 0.00 0.23 0.23 89 1011.1
20260906003747 75 334 0.0 0.0 0.00 0.23 0.23 89 1011.0
20260906003240 75 334 0.0 0.0 0.00 0.23 0.23 89 1011.0
20260906002733 75 334 0.0 0.0 0.00 0.23 0.23 89 1010.9
20260906002449 75 334 0.0 0.0 0.00 0.24 0.23 88 1010.9
20260906001721 75 334 0.0 0.0 0.00 0.24 0.23 88 1010.8
20260906001449 75 334 0.0 0.0 0.00 0.25 0.23 88 1010.7
20260906000723 76 334 0.0 0.0 0.00 0.26 0.23 88 1010.7
20260906000430 76 333 0.0 2.0 0.00 0.27 0.23 87 1010.4
20260905235657 76 334 0.0 2.0 0.00 0.29 0.23 87 1010.6
20260905235410 76 350 0.0 0.0 0.00 0.30 0.23 87 1010.4
20260905234645 76 336 0.0 0.0 0.00 0.32 0.23 87 1010.4
20260905234141 76 336 0.0 1.0 0.00 0.32 0.23 87 1010.4
20260905233633 77 336 0.0 1.0 0.00 0.32 0.23 86 1010.4
20260905233128 77 336 0.0 1.0 0.00 0.32 0.23 86 1010.5
20260905232624 77 336 0.0 0.0 0.00 0.33 0.23 86 1010.5
20260905232115 77 336 0.0 0.0 0.00 0.33 0.23 86 1010.5
20260905231612 77 350 0.0 1.0 0.00 0.33 0.23 86 1010.6
20260905231103 78 350 0.0 1.0 0.00 0.33 0.23 86 1010.7
20260905230558 78 336 0.0 1.0 0.00 0.33 0.23 86 1010.7
20260905230106 78 336 0.0 1.0 0.00 0.33 0.23 85 1010.7
20260905225546 78 336 0.0 1.0 0.00 0.33 0.23 85 1010.7
20260905225305 78 336 0.0 1.0 0.00 0.33 0.23 84 1010.6
20260905224535 78 336 0.0 1.0 0.00 0.33 0.23 84 1010.5
20260905224027 79 350 0.0 1.0 0.00 0.33 0.23 84 1010.6
20260905223521 79 336 0.0 2.0 0.00 0.33 0.23 84 1010.6
20260905223015 79 336 0.0 2.0 0.00 0.33 0.23 84 1010.6
20260905222511 79 336 1.0 3.0 0.00 0.33 0.23 83 1010.5
20260905222003 79 350 1.0 3.0 0.00 0.33 0.23 83 1010.5
20260905221458 79 338 1.0 3.0 0.00 0.33 0.23 84 1010.6
20260905220952 79 350 1.0 3.0 0.00 0.33 0.23 84 1010.7
20260905220445 79 345 0.0 1.0 0.00 0.33 0.23 84 1010.6
20260905215940 79 345 0.0 2.0 0.00 0.33 0.23 84 1010.6
20260905215655 79 345 1.0 2.0 0.00 0.33 0.23 84 1010.5
20260905215151 79 345 1.0 2.0 0.00 0.33 0.23 84 1010.6
20260905214423 78 345 1.0 3.0 0.00 0.33 0.23 84 1010.5
20260905213915 78 345 1.0 3.0 0.00 0.33 0.23 84 1010.6
20260905213410 78 345 1.0 3.0 0.00 0.33 0.23 84 1010.7
20260905212904 78 359 1.0 3.0 0.00 0.33 0.23 85 1010.8
20260905212616 78 266 1.0 3.0 0.00 0.33 0.23 85 1010.8
20260905211855 78 215 1.0 2.0 0.00 0.33 0.23 85 1010.8
20260905211346 78 215 1.0 3.0 0.00 0.33 0.23 84 1010.6
20260905210842 78 215 1.0 3.0 0.00 0.33 0.23 84 1010.7
20260905210334 78 213 1.0 3.0 0.00 0.33 0.23 83 1010.4
20260905205828 78 274 1.0 3.0 0.00 0.33 0.23 83 1010.6
20260905205321 78 274 1.0 3.0 0.00 0.33 0.23 83 1010.6
20260905204817 79 273 1.0 3.0 0.00 0.33 0.23 82 1010.6
20260905204536 79 268 1.0 4.0 0.00 0.33 0.23 82 1010.6
20260905203803 79 267 1.0 4.0 0.00 0.33 0.23 82 1010.6
20260905203735 79 274 1.0 4.0 0.00 0.33 0.23 83 1010.7
20260905202751 79 269 1.0 4.0 0.00 0.33 0.23 83 1010.6
20260905202513 79 69 1.0 4.0 0.00 0.33 0.23 82 1010.4
20260905202004 79 22 1.0 4.0 0.00 0.33 0.23 82 1010.4
20260905201235 79 5 2.0 5.0 0.00 0.33 0.23 82 1010.3
20260905201215 79 14 2.0 6.0 0.00 0.33 0.23 82 1010.4
20260905200234 80 18 1.0 6.0 0.00 0.33 0.23 84 1010.2
20260905195719 80 17 1.0 5.0 0.00 0.33 0.23 84 1010.5
20260905195219 79 30 2.0 5.0 0.00 0.33 0.23 83 1010.4
20260905194937 79 56 2.0 3.0 0.00 0.33 0.23 83 1010.4
20260905194437 79 57 2.0 4.0 0.00 0.33 0.23 83 1010.4
20260905193717 79 10 2.0 6.0 0.00 0.33 0.23 83 1010.5
20260905193214 79 327 3.0 6.0 0.00 0.33 0.23 82 1010.5
20260905192714 79 311 3.0 9.0 0.00 0.33 0.23 83 1010.6
20260905192214 79 337 4.0 9.0 0.00 0.33 0.23 85 1010.5
20260905191713 79 52 4.0 9.0 0.00 0.33 0.23 84 1010.3
20260905191214 78 5 3.0 7.0 0.00 0.33 0.23 86 1010.6
20260905190931 78 7 3.0 7.0 0.00 0.33 0.23 86 1010.8
20260905190435 78 60 3.0 6.0 0.01 0.33 0.23 87 1010.8
20260905185932 77 68 3.0 8.0 0.03 0.33 0.23 87 1011.0
20260905185209 77 47 4.0 8.0 0.11 0.33 0.23 88 1011.1
20260905184706 76 27 4.0 6.0 0.20 0.33 0.23 87 1011.1
20260905184205 76 40 3.0 6.0 0.20 0.33 0.23 87 1011.4
20260905183707 76 27 2.0 5.0 0.20 0.33 0.23 88 1011.4
20260905183425 76 355 2.0 5.0 0.20 0.33 0.23 88 1012.0
20260905182931 76 27 1.0 4.0 0.20 0.33 0.23 87 1012.0
20260905182220 77 276 1.0 4.0 0.22 0.33 0.23 87 1012.0
20260905181930 77 284 1.0 4.0 0.22 0.33 0.23 86 1011.8
20260905181207 77 264 2.0 6.0 0.22 0.33 0.23 86 1012.1
20260905180719 77 235 3.0 7.0 0.22 0.33 0.23 85 1012.4
20260905180426 78 26 3.0 9.0 0.21 0.32 0.23 84 1012.5
20260905175705 79 257 3.0 9.0 0.19 0.30 0.21 83 1012.3
20260905175429 80 264 2.0 7.0 0.11 0.22 0.12 83 1012.2
20260905174706 81 272 1.0 4.0 0.02 0.13 0.03 83 1012.2
20260905174207 81 331 0.0 2.0 0.02 0.13 0.03 82 1011.8
20260905173706 82 331 1.0 2.0 0.02 0.13 0.03 81 1011.8
20260905173207 83 331 1.0 2.0 0.02 0.13 0.03 78 1011.6
20260905172926 84 331 1.0 2.0 0.02 0.13 0.03 76 1011.5
20260905172206 85 331 1.0 3.0 0.00 0.11 0.01 74 1011.6
20260905171659 86 331 1.0 3.0 0.00 0.11 0.01 73 1011.6
20260905171152 87 331 1.0 3.0 0.00 0.11 0.01 73 1011.6
20260905170646 87 331 1.0 4.0 0.00 0.11 0.01 70 1011.5
20260905170140 87 102 2.0 4.0 0.00 0.11 0.01 71 1011.6
20260905165635 87 45 2.0 4.0 0.00 0.11 0.01 70 1011.6
20260905165129 87 44 2.0 7.0 0.00 0.11 0.01 70 1011.6
20260905164852 87 64 3.0 7.0 0.00 0.11 0.01 68 1011.6
20260905164117 87 84 4.0 9.0 0.00 0.11 0.01 70 1011.5
20260905163611 87 64 5.0 10.0 0.00 0.11 0.01 69 1011.4
20260905163106 87 55 5.0 10.0 0.00 0.11 0.01 69 1011.5
20260905162559 87 67 3.0 10.0 0.00 0.11 0.01 69 1011.6
20260905162055 87 39 2.0 10.0 0.00 0.11 0.01 69 1011.6
20260905161558 86 7 3.0 7.0 0.00 0.11 0.01 71 1011.6
20260905161043 86 97 4.0 10.0 0.00 0.11 0.01 69 1011.6
20260905160541 87 51 4.0 10.0 0.00 0.11 0.01 69 1011.7
20260905160029 87 36 3.0 9.0 0.00 0.11 0.01 71 1011.8
20260905155525 86 22 3.0 9.0 0.00 0.11 0.01 72 1011.9
20260905155020 86 52 3.0 8.0 0.00 0.11 0.01 71 1012.0
20260905154739 85 93 4.0 9.0 0.00 0.11 0.01 70 1012.0
20260905154006 85 56 5.0 9.0 0.00 0.11 0.01 70 1012.1
20260905153500 85 8 5.0 10.0 0.00 0.11 0.01 70 1012.0
20260905153220 85 50 4.0 10.0 0.00 0.11 0.01 70 1012.0
20260905152448 85 276 4.0 9.0 0.00 0.11 0.01 70 1012.1
20260905152207 85 46 5.0 11.0 0.00 0.11 0.01 72 1012.2
20260905151434 86 31 4.0 11.0 0.00 0.11 0.01 71 1012.3
20260905150929 86 17 3.0 7.0 0.00 0.11 0.01 69 1012.4
20260905150424 85 223 4.0 9.0 0.00 0.11 0.01 70 1012.3
20260905150140 85 32 3.0 9.0 0.00 0.11 0.01 70 1012.3
20260905145411 85 12 3.0 8.0 0.00 0.11 0.01 72 1012.3
20260905144906 85 26 4.0 10.0 0.00 0.11 0.01 73 1012.2
20260905144401 85 53 4.0 10.0 0.00 0.11 0.01 72 1012.1
20260905144113 84 16 4.0 11.0 0.00 0.11 0.01 72 1012.2
20260905143346 84 18 4.0 11.0 0.00 0.11 0.01 71 1012.0
20260905142840 84 213 5.0 11.0 0.00 0.11 0.01 73 1012.0
20260905142553 83 61 6.0 11.0 0.00 0.11 0.01 74 1011.8
20260905141828 83 42 6.0 10.0 0.00 0.11 0.01 74 1011.7
20260905141325 84 63 4.0 9.0 0.00 0.11 0.01 73 1011.6
20260905140818 84 64 3.0 9.0 0.00 0.11 0.01 74 1011.6
20260905140537 84 186 3.0 6.0 0.00 0.11 0.01 74 1011.6
20260905135805 83 6 2.0 5.0 0.00 0.11 0.01 74 1011.6
20260905135307 83 44 2.0 5.0 0.00 0.11 0.01 76 1011.5
20260905134806 83 40 3.0 6.0 0.00 0.11 0.01 76 1011.4
20260905134303 82 338 2.0 6.0 0.00 0.11 0.01 78 1011.4
20260905133804 82 297 2.0 5.0 0.00 0.11 0.01 77 1011.4
20260905133304 82 4 2.0 6.0 0.00 0.11 0.01 79 1011.4
20260905132804 81 38 2.0 6.0 0.00 0.11 0.01 79 1011.4
20260905132757 81 350 2.0 6.0 0.00 0.11 0.01 79 1011.3
20260905132244 80 313 2.0 6.0 0.00 0.11 0.01 80 1011.4
20260905131300 80 288 1.0 4.0 0.00 0.11 0.01 82 1011.4
20260905130758 80 233 1.0 4.0 0.00 0.11 0.01 83 1011.4
20260905130257 79 322 1.0 4.0 0.00 0.11 0.01 85 1011.4
20260905130232 78 337 2.0 4.0 0.00 0.11 0.01 87 1011.5
20260905125515 77 288 2.0 6.0 0.00 0.11 0.01 88 1011.5
20260905124752 77 270 2.0 6.0 0.00 0.11 0.01 89 1011.5
20260905124251 76 269 2.0 4.0 0.00 0.11 0.01 90 1011.6
20260905123752 76 305 2.0 4.0 0.00 0.11 0.01 91 1011.5
20260905123241 75 286 2.0 4.0 0.00 0.11 0.01 91 1011.5
20260905122739 75 309 3.0 5.0 0.00 0.11 0.01 92 1011.4
20260905122717 74 328 3.0 5.0 0.00 0.11 0.01 92 1011.4
20260905121740 74 290 3.0 5.0 0.00 0.11 0.01 92 1011.4
20260905121239 74 282 2.0 5.0 0.00 0.11 0.01 92 1011.6
20260905120733 73 290 2.0 5.0 0.00 0.11 0.01 92 1011.6
20260905120226 73 284 2.0 4.0 0.00 0.11 0.01 92 1011.6
20260905115722 73 274 2.0 5.0 0.00 0.11 0.01 92 1011.5
20260905115215 72 288 2.0 5.0 0.00 0.11 0.01 92 1011.5
20260905114711 72 277 1.0 3.0 0.00 0.11 0.01 92 1011.4
20260905114423 72 276 2.0 4.0 0.00 0.11 0.01 92 1011.5
20260905113657 71 280 2.0 4.0 0.00 0.11 0.01 92 1011.4
20260905113151 71 269 1.0 4.0 0.00 0.11 0.01 92 1011.4
20260905112646 71 278 1.0 3.0 0.00 0.11 0.01 92 1011.5
20260905112141 70 278 1.0 3.0 0.00 0.11 0.01 92 1011.4
20260905111632 70 271 1.0 3.0 0.00 0.11 0.01 92 1011.3
20260905111128 70 259 0.0 1.0 0.00 0.11 0.01 92 1011.4
20260905110634 70 258 0.0 1.0 0.00 0.11 0.01 92 1011.3
20260905110117 70 257 0.0 1.0 0.00 0.11 0.01 92 1011.3
20260905105609 70 257 0.0 1.0 0.00 0.11 0.01 92 1011.2
20260905105112 70 257 0.0 1.0 0.00 0.11 0.01 92 1011.2
20260905104558 70 257 0.0 0.0 0.00 0.11 0.01 92 1011.1
20260905104052 70 257 0.0 0.0 0.00 0.11 0.01 92 1011.1
20260905103812 70 257 0.0 0.0 0.00 0.11 0.01 91 1011.0
20260905103038 70 257 0.0 0.0 0.00 0.11 0.01 91 1011.0
20260905102818 70 256 0.0 0.0 0.00 0.11 0.01 91 1010.9
20260905102038 70 257 0.0 0.0 0.00 0.11 0.01 91 1010.8
20260905101538 70 257 0.0 0.0 0.00 0.11 0.01 91 1010.9
20260905101252 70 257 0.0 0.0 0.00 0.11 0.01 91 1010.8
20260905100532 70 257 0.0 0.0 0.00 0.11 0.01 91 1010.8
20260905100309 70 257 0.0 1.0 0.00 0.11 0.01 91 1010.8
20260905095753 70 257 0.0 1.0 0.00 0.11 0.01 91 1010.6
20260905095034 70 257 0.0 2.0 0.00 0.11 0.01 91 1010.7
20260905094531 70 257 1.0 2.0 0.00 0.11 0.01 91 1010.7
20260905094035 70 257 1.0 2.0 0.00 0.11 0.01 91 1010.8
20260905093535 70 257 1.0 2.0 0.00 0.11 0.01 91 1010.8
20260905093032 70 255 1.0 3.0 0.00 0.11 0.01 91 1010.9
20260905092748 71 257 1.0 3.0 0.00 0.11 0.01 91 1010.9
20260905092253 71 265 1.0 6.0 0.00 0.11 0.01 91 1011.0
20260905091530 71 267 2.0 6.0 0.00 0.11 0.01 91 1011.0
20260905091026 71 252 2.0 7.0 0.00 0.11 0.01 91 1011.0
20260905090528 71 242 2.0 7.0 0.00 0.11 0.01 91 1011.0
20260905090028 71 269 2.0 4.0 0.00 0.11 0.01 91 1011.1
20260905085528 71 242 2.0 4.0 0.00 0.11 0.01 91 1011.1
20260905085027 71 248 2.0 4.0 0.00 0.11 0.01 91 1011.0
20260905084527 71 250 2.0 6.0 0.00 0.11 0.01 91 1011.0
20260905084027 71 255 3.0 6.0 0.00 0.11 0.01 91 1011.2
20260905083526 71 261 3.0 6.0 0.00 0.11 0.01 91 1011.2
20260905083028 71 287 3.0 7.0 0.00 0.11 0.01 91 1011.3
20260905082751 71 263 3.0 7.0 0.00 0.11 0.01 91 1011.2
20260905082251 71 241 3.0 7.0 0.00 0.11 0.01 91 1011.2
20260905081748 71 261 3.0 7.0 0.00 0.11 0.01 91 1011.3
20260905081120 71 247 3.0 6.0 0.00 0.11 0.01 91 1011.2
20260905080527 71 266 2.0 6.0 0.00 0.11 0.01 91 1011.2
20260905080027 71 282 1.0 3.0 0.00 0.11 0.01 91 1011.2
20260905075520 71 219 1.0 4.0 0.00 0.11 0.01 91 1011.2
20260905075013 71 217 1.0 4.0 0.00 0.11 0.01 91 1011.2
20260905074508 71 249 2.0 7.0 0.00 0.11 0.01 91 1011.5
20260905074002 71 261 2.0 7.0 0.00 0.11 0.01 91 1011.5
20260905073456 71 259 2.0 7.0 0.00 0.11 0.01 91 1011.4
20260905072950 71 255 2.0 8.0 0.00 0.11 0.01 91 1011.2
20260905072443 71 267 2.0 8.0 0.00 0.11 0.01 91 1011.3
20260905071937 71 233 2.0 4.0 0.00 0.11 0.01 91 1011.2
20260905071432 71 246 2.0 4.0 0.00 0.11 0.01 91 1011.3
20260905070926 71 265 2.0 6.0 0.00 0.11 0.01 91 1011.1
20260905070421 71 273 2.0 6.0 0.00 0.11 0.01 91 1011.1
20260905065914 71 187 2.0 6.0 0.00 0.11 0.01 91 1011.2
20260905065625 71 252 2.0 8.0 0.00 0.11 0.01 91 1011.3
20260905064903 71 250 3.0 8.0 0.00 0.11 0.01 91 1011.5
20260905064356 71 234 3.0 8.0 0.01 0.11 0.01 91 1011.6
20260905063849 71 247 2.0 6.0 0.01 0.11 0.01 91 1011.7
20260905063344 71 253 3.0 7.0 0.01 0.11 0.01 91 1011.6
20260905063103 71 286 2.0 7.0 0.01 0.11 0.01 91 1011.6
20260905062815 71 251 3.0 8.0 0.01 0.11 0.01 91 1011.7
20260905062050 71 239 3.0 8.0 0.01 0.11 0.01 90 1011.8
20260905061320 71 255 2.0 4.0 0.01 0.11 0.01 90 1011.9
20260905060814 71 249 2.0 6.0 0.01 0.11 0.01 90 1012.0
20260905060323 71 258 2.0 6.0 0.01 0.11 0.01 90 1012.1
20260905060025 71 271 2.0 5.0 0.01 0.11 0.01 90 1012.1
20260905055256 71 271 2.0 4.0 0.01 0.11 0.01 90 1012.0
20260905054751 71 256 2.0 4.0 0.01 0.11 0.01 90 1012.1
20260905054506 71 263 1.0 4.0 0.00 0.10 0.00 90 1012.1
20260905053738 72 249 1.0 4.0 0.00 0.10 0.00 90 1012.1
20260905053232 72 249 2.0 9.0 0.00 0.10 0.00 90 1012.1
20260905052733 72 281 3.0 9.0 0.00 0.10 0.00 90 1012.2
20260905052233 72 270 2.0 8.0 0.00 0.10 0.00 90 1012.2
20260905051734 72 226 2.0 5.0 0.00 0.10 0.00 90 1012.2
20260905051230 72 264 2.0 6.0 0.00 0.10 0.00 90 1012.2
20260905050734 72 271 2.0 6.0 0.00 0.10 0.00 91 1012.3
20260905050227 72 284 2.0 7.0 0.00 0.10 0.00 91 1012.4
20260905045952 72 234 3.0 8.0 0.00 0.10 0.00 91 1012.6
20260905045228 72 257 3.0 8.0 0.00 0.10 0.00 91 1012.5
20260905044724 72 265 4.0 8.0 0.00 0.10 0.00 91 1012.5
20260905044222 72 276 4.0 7.0 0.00 0.10 0.00 90 1012.6
20260905043941 72 279 3.0 7.0 0.00 0.10 0.00 90 1012.6
20260905043222 72 257 4.0 7.0 0.00 0.10 0.00 90 1012.6
20260905042723 72 260 3.0 7.0 0.00 0.10 0.00 90 1012.6
20260905042223 72 257 3.0 7.0 0.00 0.10 0.00 90 1012.6
20260905041945 72 248 3.0 7.0 0.00 0.10 0.00 90 1012.6
20260905041223 72 216 3.0 7.0 0.00 0.10 0.00 90 1012.6
20260905040722 72 244 3.0 7.0 0.00 0.10 0.00 90 1012.6
20260905040444 72 251 3.0 7.0 0.00 0.10 0.00 90 1012.5
20260905035723 72 224 2.0 7.0 0.00 0.10 0.10 90 1012.6
20260905035221 72 270 2.0 7.0 0.00 0.10 0.10 90 1012.5
20260905034719 72 188 3.0 6.0 0.00 0.10 0.10 90 1012.5
20260905034218 72 203 3.0 6.0 0.00 0.10 0.10 90 1012.6
20260905033718 72 254 3.0 6.0 0.00 0.10 0.10 90 1012.7
20260905033218 72 268 3.0 8.0 0.00 0.10 0.10 90 1012.6
20260905032937 72 267 3.0 9.0 0.00 0.10 0.10 90 1012.6
20260905032656 72 263 3.0 9.0 0.00 0.10 0.10 90 1012.4
20260905031706 72 289 2.0 6.0 0.00 0.10 0.10 90 1012.4
20260905031201 72 271 1.0 6.0 0.00 0.10 0.10 90 1012.5
20260905030655 72 255 2.0 4.0 0.00 0.10 0.10 90 1012.6
20260905030201 72 263 2.0 6.0 0.00 0.10 0.10 90 1012.7
20260905025641 72 273 2.0 6.0 0.00 0.10 0.10 90 1012.6